SCP
0 0 0 0 0 0 0 0 0 0 0 0 0 0 0 0 0 0 0 0 0 0 0 0 0 0 0 0 0 0 0 0 0 0 0 0 0 0 0 0 0 0 0
0 0 0 0 0 0 0 0 0 -0 -0 0 0 0 0 0 0 0 0 0 0 0 0 0 0 0 1 0 0 0 0 0 0 0 0 0 0 0 0 0 0 0 0
0 0 0 0 0 0 0 0 -0 0 0 0 0 0 0 0 0 0 0 0 0 0 0 0 0 0 0 0 0 0 0 0 0 0 0 0 0 0 0 0 0 0 0
0 0 0 0 0 0 0 0 0 -0 0 0 0 0 0 0 0 0 0 0 0 0 0 0 0 0 0 0 0 0 0 0 0 0 0 0 0 0 0 0 0 0 0
0 0 0 0 0 0 0 -0 0 -0 0 -0 0 0 0 0 0 0 0 0 0 0 0 0 0 0 0 0 0 0 0 0 0 0 0 0 0 0 0 0 0 0 0
0 0 0 0 -0 0 0 0 0 -0 -0 -0 0 0 0 0 0 0 0 0 0 0 0 0 0 0 0 0 0 0 0 0 0 0 0 0 0 0 0 0 0 0 0
0 0 0 0 0 0 -0 -0 -0 0 0 -0 -0 0 0 0 0 0 0 0 0 0 0 0 0 0 0 0 0 0 0 0 1 0 0 0 0 0 0 0 0 0 0
0 0 0 0 0 0 0 -0 -0 -0 0 -0 -0 -0 0 0 0 0 0 0 0 -0 0 0 0 0 0 0 0 0 0 0 0 0 0 0 0 0 0 0 0 0 0
0 0 0 0 0 -0 0 -0 -0 -0 0 0 0 0 0 0 0 0 0 0 0 0 0 0 0 0 0 0 0 0 0 0 0 0 0 0 0 0 0 0 0 0 0
0 0 0 0 0 0 0 0 -0 -0 -0 0 0 0 0 0 0 0 0 0 0 0 0 0 0 0 0 0 0 0 0 0 0 0 0 0 0 0 0 0 0 0 0
0 0 0 0 0 0 0 0 -0 -0 0 0 0 0 0 0 0 0 0 0 0 0 0 0 0 0 0 0 0 0 0 0 0 0 0 0 0 0 0 0 0 0 0
0 0 0 0 0 0 0 0 0 0 0 0 0 0 0 0 0 0 0 0 0 0 0 0 0 0 0 0 0 0 0 0 0 0 0 0 0 0 1 0 0 0 0
0 0 0 0 0 0 0 0 0 0 0 0 0 0 0 0 0 0 0 0 0 0 0 0 0 0 0 0 0 0 0 0 0 0 0 0 0 0 0 0 0 0 0
0 0 0 0 0 0 0 0 0 0 0 0 0 0 -0 0 0 0 0 0 0 0 0 0 0 0 0 0 0 0 0 0 0 0 0 0 0 0 0 0 0 0 0
0 0 0 0 0 0 0 0 0 0 0 0 0 0 -0 0 0 0 0 0 0 0 0 0 0 0 0 0 0 0 0 0 0 0 0 0 0 0 0 0 0 0 0
0 0 0 0 0 0 0 0 0 0 0 0 0 0 -0 0 -0 0 0 0 0 0 0 0 0 0 0 0 0 0 0 0 0 0 0 0 0 0 0 0 0 0 0
1 0 0 0 0 0 0 0 0 0 0 0 0 0 0 -0 -0 0 0 0 0 0 0 0 0 0 0 0 0 0 0 0 0 0 0 0 0 0 0 0 0 0 0
1 0 0 0 0 0 0 0 0 0 0 0 0 0 0 0 0 0 0 0 0 0 0 0 0 0 0 0 0 0 0 0 0 0 0 0 0 0 0 0 0 0 0
0 0 0 0 0 0 0 0 0 0 0 0 0 0 0 0 0 0 0 0 0 0 0 0 0 0 0 0 0 0 0 0 0 0 0 0 0 0 0 0 0 0 0
0 0 0 0 0 0 0 0 0 0 0 0 0 0 0 0 0 0 0 0 0 0 0 0 0 0 0 0 0 0 0 0 0 0 0 0 0 0 0 0 0 0 0
0 0 0 0 0 0 0 0 0 0 0 0 0 0 0 0 0 0 0 0 0 0 0 0 0 0 0 0 0 0 0 0 0 0 0 0 0 0 0 0 0 0 0
1 0 0 0 1 0 0 0 0 0 0 0 0 0 0 0 0 0 0 0 0 0 0 0 0 0 0 0 0 0 0 0 0 0 0 0 0 0 0 0 0 0 0
1 1 1 1 0 0 0 0 0 0 0 0 0 0 0 0 0 0 0 0 0 0 0 0 0 0 0 0 0 0 0 0 0 0 0 0 0 0 0 0 0 0 0
1 1 2 1 1 0 0 0 0 0 0 0 0 0 0 0 0 0 0 0 0 0 0 0 0 0 0 0 0 0 0 0 0 0 0 0 0 0 -0 0 0 0 0
2 2 2 2 2 0 0 0 0 0 0 0 0 0 0 0 0 0 0 0 0 0 0 0 0 0 0 0 0 0 0 0 0 0 0 0 0 0 -0 0 0 0 0
2 1 2 2 1 0 0 0 0 0 0 0 0 0 0 0 0 0 0 0 0 0 0 0 0 0 0 0 0 0 0 0 0 0 0 0 0 0 -0 0 0 0 0
Wind_Speed_500mb
14 10 12 5 5 5 7 9 11 12 10 11 9 8 8 9 9 7 20 28 23 14 12 13 17 22 19 22 23 24 23 20 20 17 15 15 18 17 15 13 13 13 13
19 14 7 5 1 2 6 7 12 11 10 10 9 10 7 7 6 6 4 22 26 19 17 16 18 21 24 24 25 28 29 25 22 22 19 16 17 18 18 16 15 15 16
25 17 12 6 2 4 8 12 12 13 11 10 13 10 8 8 8 11 8 7 25 30 22 15 17 23 25 27 27 26 24 25 26 24 21 20 18 19 20 19 17 18 18
26 20 11 8 3 4 7 9 9 8 10 9 8 8 8 8 10 11 10 9 6 9 25 19 14 14 15 22 27 31 32 29 28 25 22 24 23 23 23 23 19 21 20
27 19 14 9 4 4 5 5 9 11 10 7 7 8 9 8 7 8 10 13 15 11 11 19 15 22 22 21 20 23 23 27 29 26 23 24 24 25 27 26 23 24 22
31 24 18 12 8 4 3 7 12 13 10 6 4 4 7 6 7 9 10 11 16 16 15 17 12 17 30 30 27 24 25 27 26 26 26 24 24 24 26 29 28 27 25
33 28 20 15 13 8 7 9 9 16 14 6 1 1 5 7 7 7 10 11 16 13 17 16 12 7 13 27 35 19 22 23 23 24 25 24 24 23 23 26 28 29 27
35 29 23 18 15 10 10 14 15 7 13 17 4 2 5 5 1 1 7 12 20 12 15 14 16 13 10 10 29 24 21 22 22 26 28 29 26 25 26 25 27 31 28
38 34 29 20 17 11 5 12 18 16 6 15 20 7 5 7 9 2 9 13 19 15 19 14 19 15 16 13 14 27 22 20 22 24 30 33 33 29 26 28 28 29 29
43 39 33 26 19 11 9 9 12 15 16 11 11 17 13 14 8 4 6 15 18 16 24 15 13 16 23 15 21 34 26 27 25 25 29 32 35 35 34 32 31 26 27
49 43 38 30 24 16 13 10 10 15 14 11 10 8 12 6 12 8 13 20 19 15 19 16 19 16 18 19 21 36 32 30 30 30 31 34 35 38 38 38 33 28 27
57 52 44 37 30 23 17 11 10 10 11 13 11 10 7 6 8 10 15 18 22 21 15 12 14 18 15 22 27 41 35 37 33 34 36 35 36 39 44 41 35 27 29
64 61 52 44 36 26 20 13 9 9 10 11 12 6 7 6 8 10 14 20 22 16 15 18 18 18 17 27 32 47 38 41 37 36 38 39 38 40 43 43 38 31 33
62 64 57 48 39 31 24 17 11 7 6 10 14 14 6 8 10 12 16 21 28 22 16 22 21 20 25 31 45 45 40 42 44 37 38 40 39 40 41 40 45 36 35
55 62 57 53 44 36 28 21 15 13 8 7 8 18 11 7 10 12 13 15 21 28 31 29 29 33 35 37 40 52 52 39 40 37 36 39 41 40 40 47 49 39 35
53 57 60 58 49 41 33 26 26 19 10 7 7 11 17 11 13 13 16 17 19 23 35 33 35 41 50 54 49 48 42 51 43 43 43 43 40 40 39 36 52 43 35
56 62 54 60 54 46 39 33 28 24 15 10 4 7 13 21 13 17 17 16 20 23 32 35 37 39 51 45 46 47 44 49 39 39 46 51 48 41 37 32 43 46 39
43 68 56 58 56 52 45 41 37 29 23 14 9 7 8 10 28 22 18 24 26 29 31 42 40 40 43 42 43 44 48 40 39 41 45 44 51 46 36 30 39 50 45
68 81 66 63 61 53 47 43 39 33 28 18 17 13 14 20 28 30 32 26 25 28 30 36 45 40 43 44 41 41 42 41 35 39 47 43 43 37 31 29 34 54 44
81 80 78 69 62 54 47 45 40 36 32 24 18 19 22 27 38 45 37 34 31 34 36 37 42 45 42 40 37 38 45 38 40 44 31 36 39 33 29 29 30 51 44
103 97 85 75 67 61 51 50 45 42 34 29 24 26 26 36 47 49 42 41 45 45 38 37 39 41 36 35 38 41 41 40 37 34 32 30 38 32 30 27 31 46 40
107 103 94 83 76 72 53 55 52 46 39 31 28 30 35 43 49 57 58 50 47 50 48 41 38 39 39 33 39 40 40 38 36 24 30 27 32 28 27 18 31 40 40
103 103 94 87 86 81 68 67 63 49 41 35 32 35 39 25 41 47 45 50 51 51 54 51 53 46 41 38 41 45 34 36 36 35 35 36 30 32 27 21 32 38 33
89 100 99 91 92 85 76 69 62 55 46 40 37 39 40 44 48 57 51 49 47 47 43 44 44 51 48 48 48 50 54 50 42 33 24 32 25 34 29 21 22 35 32
85 87 88 89 86 79 70 68 59 53 45 41 35 37 45 52 56 53 51 51 54 54 48 44 44 45 52 56 52 49 47 37 39 31 22 31 28 38 32 21 21 33 30
78 69 69 75 74 76 72 63 58 45 30 29 31 40 48 53 50 53 54 56 61 54 43 43 50 52 53 48 47 49 41 38 37 32 24 28 30 35 22 26 21 31 35
Wind_Direction_500mb
196 181 206 187 202 348 338 342 330 335 348 342 341 339 323 337 333 306 296 311 324 289 287 284 288 289 284 286 289 288 286 295 292 299 305 304 304 309 316 320 313 309 302
190 197 195 170 215 24 347 4 324 2 354 353 347 351 2 23 13 32 343 325 347 340 286 276 278 280 287 290 288 286 282 282 290 298 294 291 290 297 301 307 308 306 300
187 181 181 153 209 347 12 0 11 347 352 10 359 359 44 61 37 51 52 23 350 347 353 327 288 276 280 288 292 291 289 287 282 290 291 294 286 284 290 294 300 298 298
187 167 154 168 176 31 13 7 3 8 360 22 35 66 64 64 52 46 36 38 31 352 345 341 353 344 307 286 285 288 286 286 288 280 286 291 285 281 281 286 290 291 294
185 161 171 179 146 70 40 57 13 45 5 66 31 78 96 77 53 351 30 22 349 351 346 323 345 344 331 318 308 294 289 284 285 283 280 286 286 284 278 280 282 283 285
183 167 186 174 137 102 68 60 65 46 38 100 133 183 134 67 35 20 30 3 355 2 344 350 22 330 327 320 306 299 291 289 290 278 276 283 288 284 281 278 276 278 279
185 182 183 176 157 156 108 68 52 51 30 79 156 91 196 1 33 51 4 356 1 359 353 357 1 360 325 333 320 308 302 298 295 279 271 278 286 299 297 284 274 276 276
190 185 187 179 168 154 106 78 99 68 41 80 98 248 224 190 194 3 7 357 357 12 357 349 359 358 352 339 323 326 310 297 289 284 275 272 275 284 291 295 278 275 275
194 194 190 181 186 147 111 91 80 120 45 42 59 73 309 17 331 348 341 351 356 3 355 353 338 357 351 3 343 320 321 307 290 280 275 276 269 274 281 285 288 278 272
200 203 193 193 182 169 184 106 105 98 93 62 33 41 68 71 31 29 349 351 354 350 344 354 342 354 333 342 340 321 318 314 305 292 281 281 275 270 268 275 274 281 269
206 207 201 196 200 180 184 165 107 116 90 89 74 52 37 14 20 358 337 339 341 338 335 343 336 349 332 343 337 307 317 305 303 299 291 284 278 272 268 267 269 274 268
210 209 206 202 199 197 196 170 132 98 97 87 81 74 55 40 7 355 334 334 334 337 317 335 331 328 322 330 331 318 325 308 299 292 290 286 278 271 266 267 265 264 268
207 211 208 205 202 201 202 187 159 133 98 79 76 55 26 17 358 344 335 327 327 337 336 333 325 317 311 320 316 328 326 310 305 291 284 288 288 280 266 261 263 247 251
212 215 211 209 205 206 206 197 181 153 115 82 61 46 57 352 347 338 332 332 329 331 333 338 330 328 326 315 315 314 320 313 311 304 291 280 281 281 270 262 257 237 245
210 218 212 211 207 209 207 199 196 189 156 100 41 27 42 343 334 326 324 325 322 323 322 321 318 318 313 313 314 317 319 322 316 305 296 285 277 279 280 266 260 242 243
202 219 213 210 211 210 210 200 213 201 170 142 154 11 30 342 355 317 314 314 311 307 304 312 313 306 303 309 317 314 314 323 324 329 322 305 286 273 276 268 258 242 232
195 224 222 211 212 214 214 203 202 214 196 196 231 12 352 352 336 323 309 315 308 305 297 297 302 309 306 317 311 313 314 320 318 316 302 302 302 277 272 265 255 238 231
217 234 231 220 218 217 216 209 207 210 207 216 246 293 319 323 341 328 320 298 299 306 301 302 309 309 310 314 312 304 318 319 308 299 297 301 301 292 268 266 251 238 235
221 234 234 224 218 219 219 216 213 210 215 215 227 262 316 322 335 331 320 309 304 298 300 302 304 312 310 314 311 311 312 328 317 301 302 289 304 293 273 258 251 237 228
199 234 232 220 218 217 223 220 212 214 219 230 248 277 304 321 329 331 318 307 311 300 305 307 305 307 312 314 313 313 310 312 306 299 316 294 304 288 273 257 255 230 231
201 205 218 218 221 222 217 222 213 218 225 231 256 287 306 316 322 327 322 317 312 310 302 303 303 306 311 311 312 309 305 308 315 311 307 307 302 290 282 262 246 229 227
205 210 212 213 223 224 215 223 219 222 225 236 260 286 302 314 323 321 321 318 315 312 313 307 302 302 302 302 299 300 301 308 311 307 313 292 321 298 293 273 234 229 227
210 211 210 215 216 216 211 220 222 225 232 245 264 285 295 293 297 311 306 307 312 314 309 306 301 297 295 299 294 294 299 297 295 294 307 296 296 303 291 271 230 228 224
208 210 212 214 212 210 205 218 221 225 238 252 266 278 293 301 305 312 304 301 299 300 297 294 289 292 290 288 282 282 289 296 301 299 295 288 284 289 295 273 232 219 227
206 206 207 204 202 208 212 218 217 223 240 256 265 280 292 300 306 309 307 302 300 300 297 294 291 290 289 291 288 279 286 285 290 295 286 275 275 272 286 275 228 210 230
203 199 197 197 201 209 214 213 210 216 233 250 272 294 302 305 307 307 306 303 302 303 298 290 291 288 288 289 289 289 291 271 276 289 284 254 255 267 277 266 225 215 221
Wind_Speed_850mb
14 10 12 5 5 5 7 9 11 12 10 11 9 8 8 9 9 7 20 28 23 14 12 13 17 22 19 22 23 24 23 20 20 17 15 15 18 17 15 13 13 13 13
19 14 7 5 1 2 6 7 12 11 10 10 9 10 7 7 6 6 4 22 26 19 17 16 18 21 24 24 25 28 29 25 22 22 19 16 17 18 18 16 15 15 16
25 17 12 6 2 4 8 12 12 13 11 10 13 10 8 8 8 11 8 7 25 30 22 15 17 23 25 27 27 26 24 25 26 24 21 20 18 19 20 19 17 18 18
26 20 11 8 3 4 7 9 9 8 10 9 8 8 8 8 10 11 10 9 6 9 25 19 14 14 15 22 27 31 32 29 28 25 22 24 23 23 23 23 19 21 20
27 19 14 9 4 4 5 5 9 11 10 7 7 8 9 8 7 8 10 13 15 11 11 19 15 22 22 21 20 23 23 27 29 26 23 24 24 25 27 26 23 24 22
31 24 18 12 8 4 3 7 12 13 10 6 4 4 7 6 7 9 10 11 16 16 15 17 12 17 30 30 27 24 25 27 26 26 26 24 24 24 26 29 28 27 25
33 28 20 15 13 8 7 9 9 16 14 6 1 1 5 7 7 7 10 11 16 13 17 16 12 7 13 27 35 19 22 23 23 24 25 24 24 23 23 26 28 29 27
35 29 23 18 15 10 10 14 15 7 13 17 4 2 5 5 1 1 7 12 20 12 15 14 16 13 10 10 29 24 21 22 22 26 28 29 26 25 26 25 27 31 28
38 34 29 20 17 11 5 12 18 16 6 15 20 7 5 7 9 2 9 13 19 15 19 14 19 15 16 13 14 27 22 20 22 24 30 33 33 29 26 28 28 29 29
43 39 33 26 19 11 9 9 12 15 16 11 11 17 13 14 8 4 6 15 18 16 24 15 13 16 23 15 21 34 26 27 25 25 29 32 35 35 34 32 31 26 27
49 43 38 30 24 16 13 10 10 15 14 11 10 8 12 6 12 8 13 20 19 15 19 16 19 16 18 19 21 36 32 30 30 30 31 34 35 38 38 38 33 28 27
57 52 44 37 30 23 17 11 10 10 11 13 11 10 7 6 8 10 15 18 22 21 15 12 14 18 15 22 27 41 35 37 33 34 36 35 36 39 44 41 35 27 29
64 61 52 44 36 26 20 13 9 9 10 11 12 6 7 6 8 10 14 20 22 16 15 18 18 18 17 27 32 47 38 41 37 36 38 39 38 40 43 43 38 31 33
62 64 57 48 39 31 24 17 11 7 6 10 14 14 6 8 10 12 16 21 28 22 16 22 21 20 25 31 45 45 40 42 44 37 38 40 39 40 41 40 45 36 35
55 62 57 53 44 36 28 21 15 13 8 7 8 18 11 7 10 12 13 15 21 28 31 29 29 33 35 37 40 52 52 39 40 37 36 39 41 40 40 47 49 39 35
53 57 60 58 49 41 33 26 26 19 10 7 7 11 17 11 13 13 16 17 19 23 35 33 35 41 50 54 49 48 42 51 43 43 43 43 40 40 39 36 52 43 35
56 62 54 60 54 46 39 33 28 24 15 10 4 7 13 21 13 17 17 16 20 23 32 35 37 39 51 45 46 47 44 49 39 39 46 51 48 41 37 32 43 46 39
43 68 56 58 56 52 45 41 37 29 23 14 9 7 8 10 28 22 18 24 26 29 31 42 40 40 43 42 43 44 48 40 39 41 45 44 51 46 36 30 39 50 45
68 81 66 63 61 53 47 43 39 33 28 18 17 13 14 20 28 30 32 26 25 28 30 36 45 40 43 44 41 41 42 41 35 39 47 43 43 37 31 29 34 54 44
81 80 78 69 62 54 47 45 40 36 32 24 18 19 22 27 38 45 37 34 31 34 36 37 42 45 42 40 37 38 45 38 40 44 31 36 39 33 29 29 30 51 44
103 97 85 75 67 61 51 50 45 42 34 29 24 26 26 36 47 49 42 41 45 45 38 37 39 41 36 35 38 41 41 40 37 34 32 30 38 32 30 27 31 46 40
107 103 94 83 76 72 53 55 52 46 39 31 28 30 35 43 49 57 58 50 47 50 48 41 38 39 39 33 39 40 40 38 36 24 30 27 32 28 27 18 31 40 40
103 103 94 87 86 81 68 67 63 49 41 35 32 35 39 25 41 47 45 50 51 51 54 51 53 46 41 38 41 45 34 36 36 35 35 36 30 32 27 21 32 38 33
89 100 99 91 92 85 76 69 62 55 46 40 37 39 40 44 48 57 51 49 47 47 43 44 44 51 48 48 48 50 54 50 42 33 24 32 25 34 29 21 22 35 32
85 87 88 89 86 79 70 68 59 53 45 41 35 37 45 52 56 53 51 51 54 54 48 44 44 45 52 56 52 49 47 37 39 31 22 31 28 38 32 21 21 33 30
78 69 69 75 74 76 72 63 58 45 30 29 31 40 48 53 50 53 54 56 61 54 43 43 50 52 53 48 47 49 41 38 37 32 24 28 30 35 22 26 21 31 35
Wind_Direction_850mb
196 181 206 187 202 348 338 342 330 335 348 342 341 339 323 337 333 306 296 311 324 289 287 284 288 289 284 286 289 288 286 295 292 299 305 304 304 309 316 320 313 309 302
190 197 195 170 215 24 347 4 324 2 354 353 347 351 2 23 13 32 343 325 347 340 286 276 278 280 287 290 288 286 282 282 290 298 294 291 290 297 301 307 308 306 300
187 181 181 153 209 347 12 0 11 347 352 10 359 359 44 61 37 51 52 23 350 347 353 327 288 276 280 288 292 291 289 287 282 290 291 294 286 284 290 294 300 298 298
187 167 154 168 176 31 13 7 3 8 360 22 35 66 64 64 52 46 36 38 31 352 345 341 353 344 307 286 285 288 286 286 288 280 286 291 285 281 281 286 290 291 294
185 161 171 179 146 70 40 57 13 45 5 66 31 78 96 77 53 351 30 22 349 351 346 323 345 344 331 318 308 294 289 284 285 283 280 286 286 284 278 280 282 283 285
183 167 186 174 137 102 68 60 65 46 38 100 133 183 134 67 35 20 30 3 355 2 344 350 22 330 327 320 306 299 291 289 290 278 276 283 288 284 281 278 276 278 279
185 182 183 176 157 156 108 68 52 51 30 79 156 91 196 1 33 51 4 356 1 359 353 357 1 360 325 333 320 308 302 298 295 279 271 278 286 299 297 284 274 276 276
190 185 187 179 168 154 106 78 99 68 41 80 98 248 224 190 194 3 7 357 357 12 357 349 359 358 352 339 323 326 310 297 289 284 275 272 275 284 291 295 278 275 275
194 194 190 181 186 147 111 91 80 120 45 42 59 73 309 17 331 348 341 351 356 3 355 353 338 357 351 3 343 320 321 307 290 280 275 276 269 274 281 285 288 278 272
200 203 193 193 182 169 184 106 105 98 93 62 33 41 68 71 31 29 349 351 354 350 344 354 342 354 333 342 340 321 318 314 305 292 281 281 275 270 268 275 274 281 269
206 207 201 196 200 180 184 165 107 116 90 89 74 52 37 14 20 358 337 339 341 338 335 343 336 349 332 343 337 307 317 305 303 299 291 284 278 272 268 267 269 274 268
210 209 206 202 199 197 196 170 132 98 97 87 81 74 55 40 7 355 334 334 334 337 317 335 331 328 322 330 331 318 325 308 299 292 290 286 278 271 266 267 265 264 268
207 211 208 205 202 201 202 187 159 133 98 79 76 55 26 17 358 344 335 327 327 337 336 333 325 317 311 320 316 328 326 310 305 291 284 288 288 280 266 261 263 247 251
212 215 211 209 205 206 206 197 181 153 115 82 61 46 57 352 347 338 332 332 329 331 333 338 330 328 326 315 315 314 320 313 311 304 291 280 281 281 270 262 257 237 245
210 218 212 211 207 209 207 199 196 189 156 100 41 27 42 343 334 326 324 325 322 323 322 321 318 318 313 313 314 317 319 322 316 305 296 285 277 279 280 266 260 242 243
202 219 213 210 211 210 210 200 213 201 170 142 154 11 30 342 355 317 314 314 311 307 304 312 313 306 303 309 317 314 314 323 324 329 322 305 286 273 276 268 258 242 232
195 224 222 211 212 214 214 203 202 214 196 196 231 12 352 352 336 323 309 315 308 305 297 297 302 309 306 317 311 313 314 320 318 316 302 302 302 277 272 265 255 238 231
217 234 231 220 218 217 216 209 207 210 207 216 246 293 319 323 341 328 320 298 299 306 301 302 309 309 310 314 312 304 318 319 308 299 297 301 301 292 268 266 251 238 235
221 234 234 224 218 219 219 216 213 210 215 215 227 262 316 322 335 331 320 309 304 298 300 302 304 312 310 314 311 311 312 328 317 301 302 289 304 293 273 258 251 237 228
199 234 232 220 218 217 223 220 212 214 219 230 248 277 304 321 329 331 318 307 311 300 305 307 305 307 312 314 313 313 310 312 306 299 316 294 304 288 273 257 255 230 231
201 205 218 218 221 222 217 222 213 218 225 231 256 287 306 316 322 327 322 317 312 310 302 303 303 306 311 311 312 309 305 308 315 311 307 307 302 290 282 262 246 229 227
205 210 212 213 223 224 215 223 219 222 225 236 260 286 302 314 323 321 321 318 315 312 313 307 302 302 302 302 299 300 301 308 311 307 313 292 321 298 293 273 234 229 227
210 211 210 215 216 216 211 220 222 225 232 245 264 285 295 293 297 311 306 307 312 314 309 306 301 297 295 299 294 294 299 297 295 294 307 296 296 303 291 271 230 228 224
208 210 212 214 212 210 205 218 221 225 238 252 266 278 293 301 305 312 304 301 299 300 297 294 289 292 290 288 282 282 289 296 301 299 295 288 284 289 295 273 232 219 227
206 206 207 204 202 208 212 218 217 223 240 256 265 280 292 300 306 309 307 302 300 300 297 294 291 290 289 291 288 279 286 285 290 295 286 275 275 272 286 275 228 210 230
203 199 197 197 201 209 214 213 210 216 233 250 272 294 302 305 307 307 306 303 302 303 298 290 291 288 288 289 289 289 291 271 276 289 284 254 255 267 277 266 225 215 221